GEO-KOMPSAT-2A (43823 NORAD) Tracking and Keplerian Element Data

This shows tracking and keplerian element data for the satellite.

Feedback or suggestion? Click here.




ElementValue
Catalog43823
NameGEO-KOMPSAT-2A
Epoch Orbit52
Epoch Day18.69003179
Epoch Year2019
RAAN221.2276
Inclination0.0293
Eccentricity5.9E-05
Argument of Perigee162.5946
Mean Anonmoly110.6551
Mean Motion1.00273463
Decay Rate-3.38E-06
L11 43823U 18100A 19018.69003179 -.00000338 00000-0 00000+0 0 9998
L22 43823 0.0293 221.2276 0000590 162.5946 110.6551 1.00273463 527

Live tracking and technical data element details for GEO-KOMPSAT-2A (NORAD 43823). GEO-KOMPSAT-2A can be tracked NOW for your location showing map with azimuth and elevation plus other details from your city location.

Track the satellite on the map from your city or location and see movement details for azimuth, elevation, latitude, longitude, range, height, and movement on the map or in text.







IsCatalogInMostPopularTable: catalog: 43823, numindb: 23
Update: records affected: 1



GetName: 43823 GEO-KOMPSAT-2A

Hit Count: updated at: Wed, 23 Jan 2019 02:40:09 GMT